Tracking 35051 objects as of 17-Aug-2026
HD Live streaming from Space Station
objects crossing your sky now

COSMOS 1985 DEB


COSMOS 1985 DEB is no longer on orbit


NORAD ID: 20424
Int'l Code: 1988-113AL
Launch date: December 23, 1988
Source: Commonwealth of Independent States (former USSR) (CIS)
Launch site: PLESETSK MISSILE AND SPACE COMPLEX (PKMTR)
Decay date: 1990-02-25

Note: This is SATELLITE DEBRIS
Your satellite tracking list
Your tracking list is empty




NASA's NSSDC Master Catalog

Two Line Element Set (TLE):
1 20424U 88113 AL 90053.52319627  .04932160 +00000-0 +19509-1 0  9995
2 20424 073.5166 009.3400 0013367 153.7662 205.8959 15.75379252064743
Source of the keplerian elements: AFSPC